USA 40 R/B DEB, 23356

Orbit data source: Space-Track

USA 40 R/B DEB, 23356 is space debris in LEO originally from a launch on Tue, 08 Aug 1989 UTC launched from the Air Force Eastern Test Range (AFETR). Debris objects in space refer to the collection of defunct objects orbiting the Earth. Examples of debris include non-operational satellites, rocket bodies, and fragments generated from explosions, collisions, or faulty payload assembly.

Loading next visibility...
Identifier
23356, 1989-061AC
Orbit
LEO
Country
Flag of USUS
Related business
Manufacturer
Unknown
Mission
Spacecraft
Bus & Motor
Unknown
Mass
Unknown
Launch date (UTC)
1989-08-08 (37 years ago)
Launch vehicle
Unknown
Launch site
Air Force Eastern Test Range (AFETR)
Object type
Payload
Rocket body
Debris
Shape & HBR
Unknown shape, 0.1 m
Radar Cross Section
Small (<0.1 m²)

Expand to show TLE details & history
Last TLE update: 1 month ago

TLE from 1 month ago
0 USA 40 R/B DEB
1 23356U 89061AC  26067.00087272  .00039564  00000-0  23052-1 0  9990
2 23356  56.9100 194.4062 2373411 241.5269  92.6662 10.10519193245875
Epoch: 2026-03-08T00:01Z
TLE epoch observation values (Epoch: 2026-03-08T00:01:15.403Z)
Latitude
0.00003°
Longitude
28.37759°
Altitude
3,242.366 km
Speed
6.227 km/s
True Right ascension
12h 57m 37s
True Declination
0° 00' 00"
Sunlit
Object was in full shadow at epoch
Visualization orbit readout
Latitude
Unknown
Longitude
Unknown
Altitude
Unknown
Speed
Unknown
Apparent Right ascension
Unknown
Apparent Declination
Unknown
Sunlit
N/A
Visualization observer readout
Local Sidereal Time
19:17:05
Azimuth
Unknown
Elevation
Unknown
Doppler factor
Unknown
Orbital elements
Apogee altitude
4,803.747 km
Perigee altitude
514.032 km
Semi-major axis
9,037.026 km
Eccentricity
0.23734
Inclination
56.91°
RAAN
194.4062°
Arg. of periapsis
241.5269°
True anomaly
118.55773°
Mean anomaly
92.6662°
Eccentric anomaly
105.75403°
Mean motion
2.52642 °/min
Orbital period
142.49 mins
BSTAR
0.023052
Loading maneuver chart data...
Computing Atmospheric mass density...
Loading historical data...
Loading historical data...
Loading historical data...
Loading historical data...
Loading historical data...
Loading historical data...
Loading historical data...

Documentation

Showing up to 5 results
|